This is the latest recevied weather packets stored in our database for station/object K5RWS. If no packets are shown the sender has not sent any weather packets the latest 10 day(s).
| Time | Temp. | Humidity | Pressure | Rain* | Wind** | Luminosity | Snow |
|---|---|---|---|---|---|---|---|
| 1777405758 | 21.11° C | 12% | 1019.8 hPa | 0 mm | - | 742 W/m² | - |
| 1777405454 | 20.56° C | 12% | 1019.6 hPa | 0 mm | - | 745 W/m² | - |
| 1777405152 | 20.56° C | 13% | 1020 hPa | 0 mm | - | 749 W/m² | - |
| 1777404849 | 20.56° C | 12% | 1019.7 hPa | 0 mm | - | 753 W/m² | - |
| 1777404547 | 20.56° C | 12% | 1019.8 hPa | 0 mm | - | 756 W/m² | - |
| 1777404242 | 20° C | 12% | 1019.7 hPa | 0 mm | - | 755 W/m² | - |
| 1777403938 | 20.56° C | 13% | 1019.7 hPa | 0 mm | - | 760 W/m² | - |
| 1777403638 | 20° C | 15% | 1019.7 hPa | 0 mm | - | 763 W/m² | - |
| 1777403332 | 20.56° C | 14% | 1019.8 hPa | 0 mm | - | 764 W/m² | - |
| 1777403027 | 20.56° C | 13% | 1020.1 hPa | 0 mm | - | 765 W/m² | - |
| 1777402723 | 20° C | 14% | 1020.2 hPa | 0 mm | - | 766 W/m² | - |
| 1777402418 | 20° C | 14% | 1020.3 hPa | 0 mm | - | 767 W/m² | - |
| 1777402117 | 20° C | 15% | 1020.4 hPa | 0 mm | - | 766 W/m² | - |
| 1777401812 | 19.44° C | 14% | 1020.4 hPa | 0 mm | - | 765 W/m² | - |
| 1777401511 | 18.89° C | 16% | 1020.6 hPa | 0 mm | - | 765 W/m² | - |
| 1777401207 | 19.44° C | 15% | 1020.7 hPa | 0 mm | - | 762 W/m² | - |
| 1777400903 | 19.44° C | 15% | 1020.6 hPa | 0 mm | - | 761 W/m² | - |
| 1777400599 | 19.44° C | 16% | 1020.8 hPa | 0 mm | - | 757 W/m² | - |
| 1777400297 | 19.44° C | 15% | 1020.8 hPa | 0 mm | - | 755 W/m² | - |
| 1777399993 | 18.33° C | 16% | 1020.8 hPa | 0 mm | - | 754 W/m² | - |
| 1777399690 | 18.33° C | 16% | 1020.9 hPa | 0 mm | - | 749 W/m² | - |
| 1777399387 | 18.33° C | 16% | 1020.8 hPa | 0 mm | - | 744 W/m² | - |
| 1777399085 | 18.33° C | 13% | 1021.4 hPa | 0 mm | - | 741 W/m² | - |
| 1777398782 | 18.89° C | 13% | 1021 hPa | 0 mm | - | 737 W/m² | - |
| 1777398479 | 18.33° C | 12% | 1021 hPa | 0 mm | - | 732 W/m² | - |
* Rain latest hour (hover to see other rain measurements)
** Current wind speed in m/s (hover to see current wind gust speed)